Theta_e
362 363 361 358 357 359 360 362 362 362 363 363 363 363 364 364 364 365 365 364 364 362 363 359 357 359 360 360 359 360 361 362 362 362 362 362 363 362 362 361 362 361 361 362 362 362 361 361 361 361 362 361 362 361 362 363 363 363 363 363 362 363 362 362 362 362 362 362 362 362 362 362 363 363 361 361 360 360 360 359 360 360 359 359 360
360 360 359 362 357 358 359 361 361 363 363 363 363 363 363 363 363 364 363 363 364 364 362 361 361 362 361 360 361 361 361 360 362 362 361 363 363 361 361 362 361 362 362 363 361 361 362 361 361 361 361 362 362 362 363 362 363 363 363 362 362 362 362 362 363 362 362 364 363 362 362 361 362 363 363 361 361 361 360 360 361 360 359 360 359
361 360 360 363 358 358 361 362 362 362 363 364 363 363 363 363 363 363 362 363 363 363 361 361 362 361 361 360 361 362 362 361 363 362 362 363 361 361 361 361 362 361 362 361 361 362 361 361 361 361 361 362 362 362 362 362 363 364 364 363 363 363 363 363 363 362 362 363 364 364 363 363 362 362 362 361 362 362 362 361 360 361 358 360 360
360 360 361 363 359 359 361 362 362 362 362 363 363 364 364 363 362 360 359 359 363 362 362 361 361 362 361 360 360 361 361 362 362 362 362 362 358 359 360 359 360 360 359 359 361 360 362 361 361 361 361 362 363 362 363 363 363 362 365 363 362 363 364 363 363 362 362 362 361 361 363 360 361 362 362 362 362 362 362 362 361 361 359 361 360
359 359 359 363 364 360 360 361 363 363 363 363 363 362 362 361 359 355 355 358 361 362 362 361 361 361 361 360 360 360 360 359 362 362 362 361 360 359 357 359 359 356 358 356 357 359 360 361 361 360 360 361 363 362 363 364 363 364 363 363 363 363 363 363 363 363 361 361 360 362 361 361 360 361 361 362 363 362 361 361 362 361 361 361 360
360 361 362 364 362 364 360 361 363 362 362 361 359 362 360 358 354 355 356 358 360 359 361 360 360 359 358 360 360 361 361 361 361 361 362 361 359 358 358 357 358 358 357 357 359 358 360 362 361 360 360 361 362 362 363 363 363 364 364 364 364 363 363 363 362 363 362 361 359 359 358 362 359 361 362 362 361 362 362 361 361 361 361 361 360
359 361 361 363 364 363 361 362 362 361 359 358 357 358 358 358 358 357 355 358 359 359 359 360 360 360 359 359 360 360 360 360 361 361 361 361 358 356 356 356 356 356 358 358 360 361 360 362 362 362 362 362 363 362 362 362 362 363 363 363 363 363 362 363 362 359 360 359 362 360 358 359 358 359 361 362 361 361 361 361 360 360 359 359 359
358 359 360 363 359 361 361 362 361 361 361 362 362 361 360 357 357 357 356 356 357 357 357 359 359 359 360 359 360 360 360 360 359 359 360 360 360 357 357 357 358 358 357 361 361 360 360 361 361 361 361 360 361 361 361 361 362 362 363 363 363 362 362 362 363 362 359 362 360 361 362 358 360 360 361 361 361 361 360 359 361 360 359 359 358
357 361 362 359 361 363 363 363 362 362 361 359 359 359 356 356 357 356 357 357 356 355 356 359 359 360 360 361 360 360 360 360 360 361 361 360 359 356 355 355 357 357 359 359 359 362 362 362 361 361 360 360 360 360 360 360 361 362 362 363 363 363 361 361 361 360 359 361 363 362 361 356 356 360 360 360 360 360 359 359 359 359 358 358 358
356 359 359 357 360 364 364 362 361 359 360 360 361 360 358 356 357 357 357 357 357 357 357 357 359 359 360 361 361 361 360 359 361 360 360 359 359 359 359 359 360 359 360 359 361 362 363 361 361 361 361 360 360 359 360 361 362 363 362 363 362 361 360 362 363 361 358 359 359 358 358 359 357 357 358 358 360 360 360 360 358 360 359 359 358
355 358 359 358 362 363 363 363 360 361 361 360 360 360 357 357 357 357 357 358 358 357 357 358 359 360 360 360 360 361 361 361 360 360 360 361 361 362 361 360 360 360 361 359 360 361 363 362 361 360 360 360 360 360 360 361 361 363 363 363 361 359 357 356 359 362 360 358 357 357 358 360 357 358 358 358 358 359 359 359 359 359 358 358 358
354 358 359 362 368 363 363 363 361 361 361 361 361 360 358 357 357 356 358 358 359 359 359 360 360 360 360 359 359 361 360 361 362 361 360 361 360 361 361 361 362 361 362 360 361 361 362 361 363 362 361 361 360 360 360 361 362 363 362 362 361 360 359 358 362 361 360 359 358 358 355 355 356 357 359 358 358 358 359 358 358 358 357 357 357
354 354 357 361 364 363 363 362 362 360 361 361 360 360 360 359 358 357 358 358 360 359 359 359 359 360 360 359 359 359 360 360 360 361 359 360 360 360 361 360 361 361 361 361 362 361 362 362 362 362 361 360 360 360 361 361 361 361 361 361 361 360 359 358 362 363 362 361 359 357 356 357 359 359 359 358 358 358 357 357 357 357 357 357 357
351 354 358 360 364 367 362 362 362 361 360 361 361 359 360 359 357 357 357 358 360 360 360 359 360 360 360 360 359 359 360 361 359 361 360 358 357 360 359 360 360 361 361 361 361 362 362 362 361 362 362 362 361 361 360 360 361 361 361 360 360 360 357 357 360 360 360 360 358 357 358 358 359 360 358 358 358 358 358 358 358 357 357 357 357
353 357 357 360 363 364 364 362 362 361 360 361 361 360 358 359 358 357 357 359 359 360 360 359 359 359 359 360 359 359 359 360 361 360 361 359 360 361 360 360 361 361 361 361 361 361 362 362 362 362 362 362 362 362 360 360 360 360 359 360 360 360 360 351 352 356 356 357 356 355 357 360 359 358 358 358 359 358 357 357 356 355 355 355 356
356 356 360 361 363 365 364 363 361 360 360 360 357 355 356 357 357 358 358 359 360 360 359 360 360 359 360 360 359 360 360 361 361 361 361 362 360 359 360 359 361 361 361 362 362 362 362 362 361 361 361 362 363 361 360 359 360 359 358 359 360 360 362 365 353 354 354 354 355 357 356 360 359 359 359 357 357 356 356 356 355 356 355 354 354
357 360 360 360 362 361 360 364 362 359 356 354 354 355 354 357 358 360 360 360 360 361 360 360 360 359 360 360 361 360 360 360 361 359 360 361 361 360 360 360 360 361 361 362 362 362 362 362 362 362 363 363 363 362 361 360 359 358 358 357 357 358 361 363 349 350 351 351 350 353 356 358 358 358 358 358 357 357 356 356 355 356 355 354 354
355 358 358 360 362 360 361 358 362 360 356 356 355 355 358 360 360 360 360 360 361 361 360 361 360 360 361 361 361 362 363 361 361 361 361 361 361 361 361 361 361 362 361 362 362 364 364 363 364 363 362 362 362 362 361 362 360 359 357 358 355 359 360 364 348 349 350 351 351 354 355 358 358 358 357 357 357 357 356 356 356 355 355 354 354
357 357 359 360 359 361 361 361 361 362 359 356 357 358 360 360 361 361 361 360 361 361 361 361 360 361 361 361 363 363 362 362 362 362 361 361 361 361 361 361 361 360 361 362 362 362 362 362 362 362 362 362 362 362 361 361 361 360 359 356 360 357 364 363 347 349 351 352 353 353 355 357 358 358 358 358 356 355 356 356 356 356 356 354 354
357 358 358 359 360 361 362 361 360 355 359 357 359 361 360 360 361 361 361 361 361 361 361 360 361 361 362 363 362 362 363 362 363 362 361 361 361 361 360 360 361 360 361 361 362 362 362 362 362 362 362 362 362 363 362 361 361 360 359 361 356 361 358 348 348 348 350 351 355 355 359 357 357 357 357 357 357 357 357 355 355 355 355 354 354
355 355 358 358 358 361 359 363 358 361 362 358 359 360 360 361 361 361 361 361 361 361 362 362 362 362 363 362 361 362 363 363 361 362 361 362 361 362 360 360 360 361 360 361 362 362 362 362 362 362 363 363 362 363 362 362 361 360 361 358 362 361 350 354 350 350 352 353 356 357 360 359 358 357 358 357 357 356 356 354 355 355 355 354 355
355 356 355 359 362 359 359 359 356 357 358 360 358 360 359 361 364 365 365 364 363 362 362 363 363 363 361 363 366 360 360 363 362 363 364 363 364 363 362 361 360 359 359 360 362 362 363 363 363 363 363 363 363 364 364 363 362 363 362 363 362 351 354 352 350 352 351 353 356 359 359 360 359 358 358 358 358 356 356 355 356 356 356 356 356
354 357 358 359 361 362 361 362 362 359 359 360 358 358 358 359 360 363 362 362 360 362 363 363 364 365 365 364 364 364 362 363 362 362 363 362 363 363 364 363 361 359 359 360 362 363 362 363 363 364 364 365 367 363 362 362 363 363 366 363 359 353 353 353 352 350 351 354 354 360 360 360 359 359 358 358 358 358 357 356 356 356 356 357 357
353 355 356 357 361 361 363 363 363 361 360 359 357 356 358 362 362 360 362 362 363 362 362 364 365 366 365 364 358 364 362 363 363 363 362 362 362 362 362 361 360 359 359 362 362 363 363 363 364 365 365 364 363 357 357 359 360 363 365 351 352 352 353 353 348 350 353 355 355 360 360 360 360 359 358 358 357 357 357 357 356 357 357 358 358
354 355 356 356 361 362 362 364 364 363 361 362 361 361 358 363 363 364 363 364 363 362 361 364 365 366 365 360 356 357 360 360 363 363 358 360 360 362 362 362 363 364 360 366 363 363 364 365 365 366 363 360 359 354 352 352 355 351 353 350 351 352 348 350 350 352 355 359 358 360 360 358 360 358 358 358 358 357 357 358 357 357 357 358 358
353 354 354 355 358 360 361 362 362 362 362 366 362 362 359 361 360 358 360 363 362 362 359 359 364 367 362 358 357 359 361 363 365 363 360 358 359 360 360 361 363 364 363 363 361 358 362 359 359 357 359 352 350 351 350 353 350 346 350 353 349 352 352 349 350 352 356 358 360 360 359 359 360 359 357 358 358 357 357 357 357 358 358 357 358
350 352 353 354 357 360 362 361 360 363 361 362 362 361 361 360 359 359 359 359 360 360 359 361 362 365 362 363 360 359 359 360 362 361 359 360 359 359 358 361 363 362 362 361 358 360 362 360 361 360 358 349 348 351 352 351 350 344 349 349 352 349 352 351 351 352 353 358 358 360 359 358 360 358 358 358 357 357 357 357 358 358 357 358 359
350 351 351 352 356 356 360 361 362 362 364 363 362 359 361 359 359 360 361 359 359 359 359 360 362 359 361 359 358 357 354 354 356 358 359 360 358 360 359 359 359 361 359 360 358 357 358 358 361 361 358 356 351 349 347 348 350 352 347 349 350 352 354 349 348 354 354 359 360 360 358 361 359 360 359 359 358 358 358 358 358 359 358 359 359
347 348 351 352 354 358 360 360 360 360 359 357 356 355 356 359 359 359 359 361 361 360 359 365 363 361 360 357 356 351 352 355 356 357 358 358 358 360 357 356 359 358 360 356 358 358 359 358 360 360 361 359 352 350 351 348 352 349 348 348 346 354 353 353 352 351 352 355 362 358 361 359 359 360 360 361 360 360 360 359 359 360 360 360 360
347 350 351 352 354 355 356 355 356 358 357 355 358 357 359 358 360 362 360 361 359 359 360 357 360 358 355 357 354 352 353 354 356 358 356 358 358 358 360 360 357 356 359 359 359 359 358 361 359 360 357 356 353 354 353 351 348 350 352 351 348 345 355 352 356 352 354 354 355 356 361 360 361 360 361 362 362 362 362 362 363 362 362 362 362
349 349 350 352 355 353 354 357 357 361 358 356 358 359 360 358 359 360 360 360 359 359 357 355 356 360 361 361 360 360 354 354 356 357 360 358 360 360 359 360 357 357 358 360 363 363 362 361 360 359 361 361 357 355 351 352 351 348 351 347 348 354 351 356 353 353 351 358 360 361 357 363 360 361 362 362 363 363 363 363 364 364 364 364 364
348 349 351 354 353 352 354 356 357 359 359 356 359 358 360 359 360 359 356 360 361 356 355 354 354 359 362 365 365 360 361 358 360 359 359 359 359 359 360 360 359 360 364 362 363 366 365 364 363 364 364 361 357 355 358 351 350 344 351 348 353 350 354 357 351 349 350 354 361 360 362 360 362 362 361 362 363 363 364 365 365 365 365 366 367
349 349 351 352 351 353 354 356 358 359 357 355 356 357 357 357 358 357 359 356 357 357 353 353 357 360 365 366 365 363 366 363 361 362 361 360 361 362 361 363 363 364 364 364 365 364 362 362 359 361 362 359 356 355 353 350 352 353 350 350 349 347 352 351 356 355 350 353 358 360 361 362 365 364 364 363 363 364 365 365 366 366 366 367 367
349 350 351 351 353 353 353 353 356 356 358 356 357 357 358 358 358 355 358 357 357 354 353 356 359 359 363 365 366 367 365 363 366 365 360 362 363 362 361 362 364 365 367 367 362 360 359 356 358 359 356 358 355 355 351 350 349 351 352 350 353 357 358 354 352 346 357 352 351 360 356 357 359 366 364 366 366 365 365 365 365 365 366 366 367
349 350 350 352 352 352 353 352 356 357 359 357 358 359 359 357 355 357 359 356 356 355 353 355 358 359 361 363 365 366 367 367 366 366 363 363 360 359 361 364 366 366 363 363 365 363 363 361 364 361 356 355 352 355 353 353 345 350 354 358 354 356 357 348 352 348 348 353 357 351 357 352 357 360 361 368 368 367 366 367 366 366 366 367 367
349 351 352 352 351 353 355 354 356 357 360 361 362 363 361 360 360 358 359 359 356 355 355 356 359 360 362 365 367 367 367 367 367 367 360 361 359 360 361 365 368 365 362 366 366 362 362 357 363 362 357 354 354 352 352 352 350 347 350 353 351 356 355 352 354 352 349 360 354 354 355 355 360 354 357 351 363 366 366 369 368 367 368 368 367
350 349 351 353 352 352 355 353 354 356 360 360 363 365 364 362 360 358 357 360 357 355 356 358 359 360 360 362 365 365 367 366 367 369 364 362 360 360 361 366 368 366 365 367 364 364 363 358 362 362 360 357 350 346 348 350 347 349 349 351 347 356 356 358 354 349 346 353 354 350 349 357 361 356 363 356 357 364 368 368 369 370 368 368 368
351 351 351 351 351 352 354 353 357 357 360 362 365 364 366 366 363 360 362 358 354 355 358 357 360 360 363 364 366 365 367 367 368 371 372 362 362 361 364 366 366 367 365 361 363 361 361 359 361 359 359 356 353 351 349 351 346 343 350 345 353 350 344 353 353 355 353 349 352 351 352 349 352 350 348 349 348 359 360 367 368 369 369 370 370
352 351 352 353 352 352 356 357 355 358 360 364 365 365 364 365 361 362 362 359 360 357 356 357 356 360 359 365 368 366 367 367 369 370 370 359 361 363 365 368 366 365 367 362 360 361 363 360 355 363 358 356 354 351 350 353 347 347 345 347 344 352 355 347 358 356 352 347 349 353 349 353 351 350 358 357 352 356 357 360 367 368 367 368 369
353 352 354 355 353 355 358 357 358 357 361 363 364 361 361 359 356 359 358 359 359 358 360 356 359 361 360 363 368 367 367 368 368 370 370 367 362 364 364 365 365 367 366 361 361 361 361 363 357 355 356 357 355 353 351 354 348 348 348 348 349 352 353 353 353 351 353 351 350 354 348 349 352 356 352 351 350 349 356 361 361 357 365 366 371
354 353 353 354 352 355 358 357 360 361 360 359 361 358 357 357 357 354 355 357 359 360 357 357 357 360 362 365 370 365 368 368 369 369 368 366 368 365 366 367 365 367 366 364 363 362 361 363 359 362 354 354 353 354 348 353 348 344 353 347 349 351 352 354 353 348 349 346 345 345 348 351 352 351 354 358 354 355 348 357 353 357 358 371 368
354 354 353 354 354 355 356 356 359 359 360 361 360 358 360 357 354 353 354 357 359 357 358 357 357 363 369 365 368 366 369 370 370 373 374 369 367 364 366 365 366 366 367 365 366 361 362 363 359 365 358 352 350 350 346 354 347 340 342 343 346 350 353 350 348 347 346 343 344 350 357 348 348 347 353 359 359 352 348 351 356 353 364 362 365
353 351 354 355 355 356 356 358 357 359 360 362 361 361 359 360 357 355 357 353 357 359 357 359 360 360 362 367 370 370 371 372 371 373 367 371 367 368 366 365 367 365 363 367 365 362 363 361 364 357 358 357 351 352 355 355 345 345 349 345 338 339 344 346 347 347 346 345 344 346 346 345 344 349 353 354 354 363 350 354 358 360 362 366 365
351 351 353 354 355 360 358 359 358 361 362 364 362 362 363 365 366 362 361 357 358 362 364 363 362 361 361 366 370 369 370 368 368 367 368 370 369 368 366 365 364 368 366 364 364 364 362 362 361 358 359 352 350 350 353 354 357 353 340 343 343 339 336 342 346 346 344 346 343 344 346 343 346 350 354 354 346 355 356 359 358 364 365 365 366
348 351 352 353 351 357 359 360 359 360 363 365 365 365 367 367 367 369 367 364 362 360 357 357 360 362 360 362 363 368 369 365 367 369 367 370 371 370 368 367 366 366 366 360 365 364 361 363 361 363 356 354 349 348 351 352 351 356 352 348 341 339 339 343 341 346 345 345 341 344 346 344 343 349 346 348 349 348 349 351 364 363 362 367 365
347 350 352 352 353 357 359 362 360 360 361 363 366 365 364 362 361 359 357 356 356 354 353 354 354 354 355 360 363 365 365 368 367 368 367 368 370 371 369 368 367 365 364 364 363 356 355 364 361 361 361 357 359 353 345 353 351 354 352 353 355 345 342 343 342 337 349 345 344 342 342 346 344 347 354 348 344 344 356 352 360 358 361 363 366
348 350 350 352 355 357 361 362 360 360 362 363 365 366 365 365 362 357 356 356 356 355 357 356 355 354 357 361 361 365 367 366 368 369 370 372 373 370 370 368 367 367 365 362 359 358 357 360 363 364 361 359 360 355 355 348 353 356 350 348 347 352 350 348 341 348 339 346 348 346 342 347 345 343 344 345 345 345 350 356 345 349 363 364 365
348 349 350 351 357 360 361 362 361 360 363 363 364 366 365 366 364 359 359 358 352 356 361 360 360 361 359 361 361 363 366 367 367 372 371 370 371 370 370 369 367 367 363 364 362 361 361 364 362 363 366 362 360 356 354 353 356 347 352 353 351 348 348 349 349 348 344 342 340 348 345 343 342 341 341 345 345 344 345 349 349 348 353 358 358
347 348 349 353 355 360 361 362 362 362 362 363 364 363 367 367 365 362 358 356 358 361 362 362 361 363 360 362 362 362 363 368 369 366 371 371 367 371 372 370 367 365 364 363 361 360 361 365 363 365 363 363 363 359 358 358 354 353 353 355 351 350 349 348 347 348 344 342 340 341 342 344 347 344 347 343 344 346 345 345 358 350 360 359 362
348 349 349 352 354 359 361 361 364 361 362 364 363 363 364 368 363 361 362 360 358 358 361 363 364 364 365 365 367 365 361 362 365 370 369 370 368 370 366 366 365 364 362 365 362 362 363 363 366 365 366 365 364 361 361 359 356 355 358 354 357 353 350 349 347 345 346 344 340 342 343 344 344 344 349 347 345 347 347 349 353 351 352 361 360
349 349 349 352 353 357 361 360 363 362 363 364 362 361 364 363 363 365 365 363 362 363 364 363 367 364 364 363 364 364 366 360 362 362 366 364 368 369 364 362 365 366 362 364 364 359 359 360 363 363 365 367 362 365 360 359 359 356 352 357 351 348 348 348 345 347 344 342 344 343 342 346 340 342 350 347 352 349 349 351 348 347 358 357 359
Wind_Speed
4 7 8 7 3 4 4 5 3 8 9 10 10 10 10 10 10 10 10 9 10 9 8 12 9 9 10 10 9 8 8 9 11 12 10 11 12 11 12 10 9 11 12 14 15 15 15 15 15 15 14 15 14 14 15 15 15 15 15 15 16 15 15 16 16 16 17 17 17 16 15 16 17 15 14 15 14 14 14 9 10 11 11 14 14
8 8 7 7 3 3 3 4 5 9 9 10 10 10 10 11 10 10 9 10 11 13 13 13 12 11 12 11 10 10 8 8 10 12 9 10 13 12 11 10 10 10 13 15 15 15 15 15 15 15 15 15 16 14 14 15 15 15 15 15 15 15 15 15 16 16 17 17 16 17 16 17 17 14 14 15 15 14 13 14 14 10 10 14 15
9 9 8 7 4 2 4 3 8 8 9 10 10 10 12 13 12 12 12 11 12 14 13 12 12 12 12 11 10 10 11 10 11 12 12 13 13 12 11 7 8 10 13 15 15 14 14 14 14 14 15 15 15 14 15 15 14 14 14 15 15 14 14 14 14 14 15 16 16 17 18 17 16 16 15 15 15 15 15 14 14 14 10 14 15
10 8 8 8 6 3 5 5 7 8 9 9 10 12 12 12 13 11 10 10 12 12 12 12 12 12 12 10 11 12 12 10 11 11 12 15 13 12 11 7 4 7 12 14 13 13 13 14 14 14 14 15 14 14 14 14 14 14 14 14 14 13 12 11 11 11 11 11 12 10 9 11 13 16 15 14 15 15 15 16 16 15 15 14 15
10 9 9 8 8 5 3 4 6 8 9 10 11 13 13 13 12 9 9 9 9 11 11 10 11 11 12 11 10 12 14 10 11 12 12 16 13 13 12 10 10 12 13 12 9 8 11 14 14 13 14 14 14 14 14 14 14 14 14 14 14 13 11 11 10 9 8 9 12 8 9 11 10 14 14 14 15 15 15 15 16 14 14 16 15
9 9 8 8 9 8 4 5 7 8 11 16 8 11 13 11 9 7 8 9 8 9 10 9 10 10 10 10 10 11 13 13 13 12 13 16 15 11 12 11 11 13 12 10 11 7 11 13 13 13 14 14 14 14 14 14 13 13 13 13 13 12 10 10 9 9 10 8 8 6 8 8 10 9 14 14 14 14 14 14 14 14 15 15 15
10 7 8 8 8 9 5 5 8 11 12 10 13 10 12 12 12 10 8 8 9 10 11 10 12 11 11 12 10 11 10 10 11 12 12 16 20 15 13 10 11 10 11 11 11 12 10 11 13 14 14 14 14 14 14 14 14 14 13 13 12 10 8 7 9 8 6 2 4 5 6 9 9 8 13 13 14 14 13 13 13 12 12 12 13
9 7 8 8 8 9 2 10 11 13 12 11 13 14 13 11 9 9 8 7 8 8 9 10 10 11 12 11 11 11 10 9 9 11 12 13 16 17 19 14 13 13 12 12 13 12 11 12 13 14 14 13 14 13 14 14 14 14 13 12 11 9 7 5 8 8 7 2 5 7 5 8 9 9 12 13 13 12 11 12 11 11 11 12 12
8 8 7 9 10 11 10 12 12 12 13 13 11 13 12 9 8 7 8 9 7 6 9 10 10 10 11 12 10 10 11 11 11 11 11 11 14 16 18 15 14 12 12 13 13 11 12 14 13 14 14 13 13 13 13 13 13 13 12 11 10 8 5 4 5 3 5 4 5 7 7 9 9 9 11 11 11 9 7 11 11 12 13 12 12
8 7 7 9 10 11 11 13 13 13 12 11 11 12 11 7 7 6 7 8 10 10 10 10 9 10 11 11 11 11 11 11 11 12 9 10 11 13 17 14 13 12 12 12 12 12 12 13 14 13 14 13 12 12 12 12 12 11 10 10 8 8 6 4 4 6 8 7 9 9 7 10 10 10 12 13 13 12 14 14 9 12 11 13 13
9 7 8 11 13 12 12 12 15 13 14 11 10 14 11 7 7 6 7 9 11 11 11 10 10 10 10 12 12 11 11 10 11 12 11 11 12 13 15 15 12 13 14 12 11 13 13 13 13 14 13 13 12 11 11 11 11 10 9 8 6 4 4 7 6 7 8 9 9 9 10 14 9 9 12 13 12 12 13 12 12 12 12 12 12
9 8 10 11 14 13 12 13 14 14 12 11 12 13 11 8 8 7 7 8 11 10 11 10 10 10 11 11 12 12 11 12 12 13 13 13 12 13 14 14 13 13 12 13 12 13 13 13 13 13 12 13 11 11 11 10 10 9 8 6 5 4 5 4 5 7 8 9 9 9 10 10 11 11 12 12 12 11 11 11 11 11 11 11 11
12 11 11 11 12 13 13 12 13 13 13 12 12 12 11 9 8 8 8 9 11 11 11 11 12 12 12 11 11 12 12 11 13 13 14 14 13 14 13 13 12 12 13 13 13 13 13 13 13 13 12 11 12 10 10 10 9 8 6 5 3 4 3 0 6 7 7 8 7 9 11 10 11 11 11 11 11 11 10 10 10 10 10 10 10
10 12 11 11 11 14 14 13 13 12 13 12 11 11 10 9 9 8 10 10 10 11 12 12 13 12 12 12 11 13 14 12 13 13 14 17 14 15 13 12 10 12 13 12 12 12 12 12 12 12 11 11 10 10 9 9 8 7 5 4 2 3 3 7 6 8 8 8 9 10 10 9 10 10 10 10 10 10 10 10 10 10 9 9 9
10 12 12 12 10 12 15 14 13 13 13 12 11 10 9 9 10 10 10 10 10 11 12 12 13 13 12 13 12 13 14 12 13 14 14 17 16 16 15 12 13 13 13 13 12 11 11 11 11 11 11 11 10 10 9 8 6 6 5 3 3 5 8 3 5 7 7 7 8 10 10 9 11 10 10 10 9 10 10 10 9 9 9 8 8
11 13 13 10 11 11 11 13 14 14 13 13 13 7 7 10 9 10 11 10 11 12 13 13 14 14 14 13 13 14 14 14 15 14 14 14 16 16 15 14 14 13 13 12 11 11 11 10 10 10 10 10 9 8 9 7 7 5 4 3 4 7 9 7 5 6 6 7 7 9 9 9 10 10 9 9 9 9 10 9 9 8 8 7 7
10 12 11 11 9 10 11 10 12 14 17 16 8 7 9 9 9 11 11 11 12 14 15 15 15 15 15 15 14 14 14 15 15 16 15 15 15 15 15 14 14 13 12 12 11 11 10 9 9 9 9 8 8 8 8 8 6 5 4 3 5 4 9 10 6 6 6 7 7 6 7 7 9 9 9 9 8 9 8 8 8 8 7 7 7
11 11 9 10 9 10 10 12 11 12 12 11 9 7 9 10 11 11 13 14 13 14 15 16 15 16 15 16 16 15 15 15 15 15 15 15 15 14 14 14 13 12 12 11 11 10 9 9 8 7 7 7 7 8 7 7 6 6 3 2 3 5 9 11 7 5 6 7 8 7 7 9 9 8 8 7 8 8 7 7 7 7 6 6 6
9 7 8 7 9 9 12 10 9 10 13 8 6 8 9 11 11 13 13 13 15 15 17 17 17 16 17 17 17 17 16 16 15 15 15 16 16 14 13 13 12 12 12 11 10 9 9 8 6 6 5 6 7 7 6 6 6 4 2 2 5 7 10 9 7 6 6 6 7 7 7 8 8 7 7 7 7 7 6 6 6 5 6 5 5
14 8 6 5 7 8 9 10 9 9 7 6 7 7 9 11 11 14 14 15 15 15 16 17 17 17 17 17 17 15 15 14 16 14 15 15 13 12 14 13 12 12 10 9 8 8 7 6 5 5 5 5 6 6 6 5 5 3 3 4 6 7 7 5 5 8 6 6 6 7 8 8 7 6 6 6 5 6 5 5 3 4 4 4 4
10 13 6 5 5 7 10 12 8 9 10 12 8 9 9 12 10 12 14 15 15 15 16 17 17 17 15 15 14 11 10 9 10 11 12 11 13 12 12 12 11 8 6 6 6 6 5 4 4 4 4 4 4 5 4 4 4 3 5 6 8 7 3 4 7 5 6 6 6 7 7 7 6 5 5 4 4 4 4 2 4 3 4 3 3
6 8 13 12 8 8 8 11 16 10 9 7 5 6 8 8 9 9 10 12 13 13 11 10 11 11 14 9 8 9 7 8 10 10 9 10 11 12 11 10 8 6 5 4 3 5 4 4 4 3 4 3 7 5 5 4 4 6 6 10 7 1 1 5 5 5 5 6 6 7 6 6 4 4 3 4 2 3 2 2 2 2 1 2 3
7 7 6 8 7 7 7 9 12 14 12 8 7 8 8 6 7 7 7 11 11 10 8 8 8 8 8 8 8 8 9 8 7 8 8 11 11 11 11 10 8 6 4 4 3 5 4 3 4 3 3 5 5 2 3 4 5 10 10 7 4 4 3 1 5 4 5 6 6 8 6 5 4 3 2 2 2 2 1 1 1 2 2 3 4
7 7 7 7 7 6 8 8 9 17 10 7 9 7 5 5 7 9 9 8 7 9 7 5 7 8 7 7 9 8 8 7 11 13 11 8 8 9 10 9 8 5 5 5 5 4 4 5 4 6 5 6 4 2 4 5 3 5 7 3 4 2 3 2 4 5 4 6 7 9 6 5 3 2 2 1 2 1 1 1 1 2 3 3 4
7 7 7 7 7 8 8 7 7 6 10 10 11 9 8 5 5 7 6 7 9 8 8 6 6 8 7 7 10 10 10 8 8 7 7 7 7 6 6 4 4 3 3 2 2 4 5 3 3 5 4 5 9 7 4 3 3 4 4 5 3 2 5 3 4 3 5 5 6 9 6 5 4 2 2 2 2 1 1 2 3 3 4 5 5
7 7 7 8 7 8 8 8 7 6 6 7 7 8 10 9 8 10 10 6 8 11 10 8 6 4 7 8 9 9 8 7 6 6 7 7 7 6 5 4 3 3 3 2 3 3 3 2 3 2 7 4 5 5 2 3 4 5 4 3 3 2 3 3 3 2 4 6 7 9 6 5 4 3 3 2 1 2 2 3 3 4 4 4 5
7 7 8 7 7 8 7 7 8 6 10 9 5 7 7 7 6 6 9 8 9 8 8 9 9 7 8 6 6 6 6 7 6 6 5 5 5 5 4 4 4 3 4 5 5 4 6 7 6 5 1 3 6 2 1 4 4 5 4 3 2 3 2 3 4 3 3 5 7 10 7 5 4 4 3 3 3 2 4 4 5 5 5 6 6
7 8 8 8 8 9 8 8 7 7 6 7 8 7 7 7 7 7 7 7 8 8 8 8 8 7 9 7 7 6 7 8 8 7 6 6 6 6 6 6 7 6 3 3 2 2 3 3 3 4 2 2 3 4 6 4 2 4 5 3 3 2 2 4 3 1 4 5 6 8 9 7 6 5 5 3 5 5 5 6 7 7 7 8 7
8 8 7 8 8 8 9 9 8 8 7 7 8 8 8 7 7 6 7 6 6 7 8 7 6 6 6 9 9 9 7 7 7 6 6 6 5 5 4 4 4 4 3 3 3 3 2 2 2 2 2 2 2 3 4 4 4 4 4 5 4 3 2 4 3 1 3 4 6 7 9 8 6 6 6 6 6 7 7 7 8 8 9 9 9
8 8 8 8 8 8 9 9 9 7 7 8 7 7 7 7 7 7 6 6 6 8 8 7 7 6 6 5 6 7 7 7 7 6 6 5 5 5 4 4 4 4 3 3 2 2 3 2 2 2 2 3 2 1 1 3 5 4 3 2 4 6 3 3 1 3 4 4 5 6 9 8 8 7 8 7 8 8 9 9 9 9 10 10 10
9 8 8 7 7 8 9 9 8 7 7 8 7 8 7 7 7 7 6 6 7 7 6 7 7 6 6 5 6 6 7 7 7 6 5 5 5 4 4 4 3 5 3 2 3 4 3 3 3 2 2 2 1 1 0 3 4 4 4 4 3 3 2 3 4 6 5 3 5 5 7 10 9 9 9 10 10 10 10 10 11 11 11 11 11
9 9 8 7 8 9 9 9 8 6 7 9 7 7 7 7 7 7 7 6 6 6 6 7 7 7 7 4 4 4 6 6 6 5 5 5 4 4 4 4 4 3 4 4 3 2 2 2 2 2 1 0 2 2 2 3 4 5 3 3 2 5 3 3 4 7 6 5 1 3 5 7 11 10 11 11 11 11 11 12 12 12 12 12 12
7 9 9 9 10 9 9 9 8 6 7 8 8 7 7 7 7 7 6 6 7 7 7 7 7 6 5 5 5 6 5 5 4 5 4 4 4 4 5 4 4 3 3 3 3 1 1 2 3 3 1 1 0 2 4 4 3 2 4 4 5 3 2 3 3 4 6 6 3 2 3 4 6 11 12 12 13 12 13 13 12 12 12 13 13
8 7 9 10 8 8 6 8 8 7 6 7 6 6 6 7 7 7 6 6 6 7 7 7 6 6 5 5 5 4 4 4 4 2 4 4 4 4 5 4 3 3 2 2 2 3 3 6 2 4 4 1 1 0 3 3 4 3 3 4 3 3 2 3 4 3 2 6 3 3 4 3 3 6 7 12 12 13 13 12 12 12 12 12 12
8 8 9 10 9 8 7 7 8 8 6 7 6 6 6 6 7 6 5 6 7 7 8 7 7 6 6 5 4 4 4 4 3 2 3 4 5 4 4 4 3 2 3 2 3 3 3 4 2 4 4 1 2 2 2 3 3 3 4 3 3 2 2 5 3 4 5 2 1 5 1 4 3 2 2 6 9 12 11 11 12 12 12 11 12
9 9 9 8 10 9 8 9 9 8 8 6 6 5 5 5 6 5 5 5 6 7 6 6 7 6 6 5 4 4 4 3 3 1 1 2 4 4 4 4 1 2 2 3 2 4 3 2 1 2 1 7 1 3 4 2 3 4 2 3 3 2 2 3 3 3 5 1 3 3 4 2 2 1 3 3 3 6 11 9 10 10 11 11 11
10 11 10 9 9 9 8 11 10 9 8 8 7 6 5 6 6 6 6 4 5 6 6 6 5 6 5 5 5 4 4 3 2 1 1 3 4 3 4 4 2 3 1 3 3 4 0 1 3 4 3 3 4 4 4 3 3 4 6 3 6 2 3 1 4 7 3 3 1 1 5 3 3 3 4 3 3 2 9 10 9 10 10 10 8
10 10 10 9 9 9 8 9 10 9 8 7 7 6 6 5 5 6 5 4 6 5 5 5 4 5 5 5 5 4 4 3 3 2 4 2 3 3 5 3 2 1 1 1 2 3 4 1 3 2 2 4 4 3 1 0 2 4 2 6 1 2 4 3 3 2 4 5 4 3 4 6 5 7 6 6 4 5 1 8 9 8 7 6 6
9 11 10 9 9 8 7 9 8 9 8 7 5 5 6 5 6 6 4 3 3 4 5 5 6 3 7 6 5 5 4 4 3 1 0 3 2 4 3 2 2 1 1 4 4 1 3 4 4 2 2 3 3 3 4 3 1 2 5 6 5 2 3 4 2 2 3 5 4 3 2 3 4 3 3 5 0 5 5 5 2 3 4 7 3
9 9 10 9 8 9 8 7 7 8 7 7 5 6 5 5 6 6 5 4 3 4 4 5 10 4 5 6 5 5 5 4 3 2 1 1 3 3 3 3 2 1 1 4 2 2 1 1 2 5 4 3 1 1 1 2 3 3 3 4 3 4 3 2 3 7 5 4 4 3 5 4 4 1 4 5 7 6 3 5 6 4 2 6 5
11 11 10 10 9 9 9 9 7 8 6 6 5 5 5 5 5 6 6 5 5 5 5 3 10 7 7 7 5 5 5 4 3 2 2 1 1 3 2 2 2 2 0 1 1 3 2 2 1 2 4 2 3 2 3 4 3 3 2 5 3 4 6 7 6 3 6 7 7 3 3 4 1 4 5 2 3 6 5 3 6 4 8 2 2
11 12 11 11 10 10 10 9 7 7 7 6 5 5 5 4 4 4 6 6 5 5 5 6 5 7 6 6 5 5 5 4 3 2 2 2 1 2 2 1 1 2 0 1 2 1 1 2 2 2 6 2 2 4 4 7 4 4 5 4 3 2 2 4 6 3 4 5 6 2 2 7 5 4 5 2 2 4 6 7 5 6 4 8 5
12 12 11 11 10 9 8 8 7 7 6 6 5 4 3 3 2 4 5 5 5 5 6 5 5 6 7 6 5 5 4 4 3 3 3 2 2 1 2 2 1 2 1 2 2 1 2 1 1 3 2 6 1 3 3 5 6 2 3 2 4 5 1 3 1 4 5 5 3 3 7 3 5 3 2 3 5 2 5 6 8 5 9 4 3
11 11 12 12 10 9 9 8 8 7 7 6 6 6 4 4 2 2 4 7 6 3 5 8 6 6 8 6 6 5 5 5 5 5 3 1 1 2 1 1 2 0 0 1 3 2 2 4 1 4 3 5 4 4 5 3 2 6 3 1 3 4 2 3 3 5 6 6 4 3 6 9 4 4 4 3 4 3 4 4 2 4 2 2 2
12 12 11 11 9 11 10 9 8 8 7 7 6 6 5 3 2 1 2 3 4 5 5 5 6 6 6 7 6 6 5 5 4 2 3 2 1 1 0 1 1 2 2 1 0 6 3 3 3 3 3 3 4 4 3 4 4 3 3 3 4 4 1 5 4 3 7 5 7 3 6 6 6 2 3 3 1 5 5 6 3 3 0 4 3
12 12 11 12 11 11 11 10 8 8 8 9 8 6 6 5 4 4 3 3 3 4 4 5 6 6 7 5 8 7 6 5 4 4 3 3 3 1 2 2 3 2 2 4 2 1 2 3 3 1 2 2 3 4 5 3 5 3 2 3 2 1 2 1 2 2 1 1 2 2 1 7 3 4 2 2 5 5 2 3 5 4 1 1 2
12 12 11 11 12 12 11 10 9 8 8 10 9 6 6 5 5 6 5 5 4 4 3 3 6 4 5 7 6 6 6 6 5 4 4 2 2 2 1 2 1 2 2 1 3 5 3 1 3 3 1 3 2 3 7 2 2 2 4 5 2 4 2 3 2 1 2 1 1 4 2 3 3 5 4 5 4 4 2 2 3 2 3 1 3
13 12 11 12 12 12 12 11 9 8 8 9 9 7 6 5 6 3 4 4 6 4 1 3 3 2 4 6 6 5 5 4 5 4 4 4 3 3 1 2 3 1 2 2 3 2 4 3 1 2 2 1 1 1 1 4 2 2 4 5 1 3 2 2 3 6 4 0 2 5 2 4 2 3 1 2 6 3 1 1 2 2 3 0 2
13 12 12 12 12 11 12 11 10 9 9 11 9 8 6 6 6 5 6 4 4 3 3 3 4 3 4 3 4 6 5 4 3 5 4 4 3 2 2 2 2 2 3 3 3 1 0 2 1 0 0 1 1 3 3 1 5 4 2 3 3 4 2 1 2 3 1 5 2 3 2 3 3 3 3 3 3 2 2 0 2 1 1 1 2
11 12 12 12 12 12 12 12 11 9 9 11 10 9 8 6 6 5 6 4 5 6 5 5 4 4 4 4 2 3 5 6 5 4 4 4 4 3 5 3 4 2 3 3 1 2 1 2 2 1 2 2 2 2 2 1 3 4 1 1 1 1 4 3 2 2 2 2 3 5 1 1 1 1 2 4 3 3 4 3 3 6 0 1 2
11 12 12 12 12 12 12 12 12 9 10 11 11 10 9 7 7 5 6 6 5 3 4 5 5 5 5 5 4 4 5 5 6 5 5 5 4 4 2 5 2 2 2 1 2 3 4 4 3 2 1 2 2 2 2 2 2 1 4 1 3 4 3 2 1 4 4 2 3 2 6 6 2 4 3 1 2 0 1 2 3 1 3 2 3
Wind_Direction
109 111 105 101 63 64 36 3 32 97 86 86 85 87 90 91 96 93 98 105 110 113 114 111 113 122 122 132 133 126 111 108 109 106 107 114 111 103 106 104 98 101 105 104 105 103 102 103 101 99 98 96 95 94 87 86 83 87 87 90 92 91 89 88 87 87 86 86 84 83 80 79 74 77 78 76 79 82 91 92 89 91 87 93 97
130 126 117 104 69 45 8 344 100 92 86 85 85 85 86 89 87 87 89 95 93 94 88 100 119 120 111 113 118 119 112 109 108 111 115 114 110 107 107 112 109 119 112 108 104 103 104 101 100 99 99 100 92 89 90 86 87 87 88 88 84 87 86 86 86 85 85 84 84 81 77 76 80 82 81 80 80 81 82 81 78 77 82 84 89
124 121 120 105 96 34 32 90 96 88 84 82 83 82 76 68 67 67 63 63 78 84 92 107 111 109 115 123 125 123 119 115 116 114 117 112 105 108 104 102 119 117 116 107 101 104 105 103 101 100 99 98 100 99 90 88 86 86 88 90 97 89 85 85 83 84 89 92 90 90 83 75 74 76 78 80 79 77 77 75 81 85 85 90 87
128 126 122 115 114 89 84 62 81 86 89 80 78 81 82 80 74 79 79 75 84 96 104 110 115 116 119 128 133 124 116 116 116 119 116 109 105 112 105 103 111 95 86 80 96 101 102 105 104 102 101 99 100 98 97 97 95 90 89 90 94 96 91 90 88 88 91 90 90 87 84 84 80 79 82 82 81 79 80 81 79 82 85 84 85
126 123 122 131 132 130 75 84 77 94 82 80 68 78 77 78 78 73 72 70 89 102 104 111 117 123 123 127 122 117 115 131 121 116 116 111 115 116 110 108 88 83 72 77 82 90 105 104 102 101 100 99 99 98 97 97 97 96 94 94 95 96 98 99 95 92 86 71 51 58 79 82 82 77 77 81 83 81 83 86 85 84 87 86 83
119 125 131 124 118 121 128 83 80 92 75 70 77 91 83 85 93 98 91 104 102 98 104 111 106 115 116 116 114 114 118 121 118 120 114 111 113 102 102 102 82 98 109 124 112 107 87 93 100 102 101 100 99 99 100 100 96 95 95 94 96 99 101 95 92 80 76 56 84 83 64 79 85 78 78 78 81 80 81 83 85 85 89 90 86
126 120 114 121 119 109 127 107 108 87 90 106 93 69 80 93 114 127 129 118 115 120 121 116 114 115 120 123 117 117 113 109 108 107 109 117 122 129 110 102 109 116 121 126 109 98 96 98 98 99 98 98 98 100 101 100 101 96 96 97 97 99 102 108 92 97 113 143 92 77 109 87 87 87 81 78 79 81 80 82 83 86 84 85 84
117 117 111 109 109 119 141 98 85 88 81 84 84 85 93 105 120 114 118 137 125 123 124 117 106 106 113 115 123 123 119 118 116 114 115 120 124 131 131 136 143 139 134 119 109 114 120 108 99 95 97 99 100 99 99 100 98 97 97 98 97 96 95 95 129 146 186 121 82 108 84 88 87 90 81 81 80 79 86 82 81 84 84 89 96
115 118 128 108 102 96 100 97 96 94 95 85 92 102 95 102 105 112 122 105 108 116 117 99 101 111 118 123 124 124 122 120 115 114 117 120 123 129 126 141 134 125 122 113 113 107 99 94 95 93 95 97 99 100 99 98 98 98 96 96 93 92 89 82 72 107 108 90 94 86 120 99 87 83 84 84 81 77 85 93 89 87 80 77 75
122 129 112 112 105 97 95 100 94 90 95 94 99 103 101 102 109 121 113 110 106 98 96 103 110 115 118 122 126 122 120 116 112 102 101 105 102 99 113 113 117 119 113 102 103 99 93 96 93 95 94 94 97 98 99 100 100 100 97 93 93 92 94 143 178 152 107 103 100 91 64 84 86 80 85 88 91 84 78 81 78 75 80 80 77
126 122 115 102 97 101 102 104 107 110 102 106 104 97 105 119 118 107 104 101 102 102 107 115 116 113 117 123 126 121 117 116 112 110 110 100 97 104 108 116 119 113 110 114 108 98 94 91 93 96 98 97 97 100 100 98 99 97 94 86 84 87 94 89 98 95 95 94 94 91 87 80 81 81 84 81 80 80 76 73 74 77 78 77 76
126 130 105 100 106 106 104 100 104 105 107 109 103 101 112 115 109 116 107 101 98 101 112 118 120 118 118 121 118 121 120 119 113 114 111 103 106 109 107 106 108 119 115 111 105 101 94 93 92 91 96 99 98 98 99 99 95 94 92 85 72 79 94 110 101 91 97 98 89 91 90 88 86 86 85 82 82 80 76 74 75 77 76 75 75
142 126 115 118 113 111 107 106 103 105 108 103 99 105 118 122 113 104 95 84 100 111 118 122 122 120 119 115 117 120 120 118 118 115 118 117 116 108 98 103 105 105 110 107 103 101 97 97 96 95 93 97 99 102 104 102 100 96 90 84 73 86 85 123 98 89 84 85 89 87 86 83 83 83 80 82 82 79 78 77 75 74 74 76 77
121 117 119 115 110 112 110 107 102 100 102 104 105 107 107 118 118 103 103 105 106 119 116 117 114 113 114 116 117 115 111 112 116 122 119 123 112 103 113 112 111 110 106 103 102 101 101 98 96 97 97 97 99 99 102 104 102 98 92 77 42 344 18 94 96 86 85 85 85 83 81 80 79 80 83 81 80 79 79 78 76 75 76 74 77
119 112 109 113 119 110 109 107 105 106 109 104 102 100 108 110 96 98 101 105 115 110 107 108 113 114 114 116 114 111 118 124 119 113 106 105 114 120 117 120 114 110 103 98 96 95 97 98 100 102 103 100 99 98 95 95 98 92 79 37 11 322 313 76 73 87 83 83 90 92 87 85 86 82 82 83 79 77 77 77 75 72 68 68 67
116 114 110 113 118 125 117 110 111 112 108 97 83 95 103 83 93 101 104 106 112 110 111 112 113 114 113 113 114 115 110 111 110 104 104 105 108 112 116 114 109 104 102 100 100 99 99 103 101 100 98 92 86 90 93 93 90 87 67 41 339 337 331 334 96 91 93 94 90 85 87 84 87 88 87 88 86 86 83 84 82 78 78 80 75
98 86 111 119 124 122 123 123 116 115 89 80 121 124 101 101 108 113 111 117 117 113 110 108 108 110 111 112 110 106 109 109 110 114 109 104 102 103 105 106 104 102 103 102 100 98 97 96 97 101 102 95 89 91 96 91 89 85 77 357 353 318 301 307 103 90 90 90 88 85 93 96 90 95 93 91 91 85 83 76 74 71 69 62 59
113 127 122 135 140 124 122 120 119 108 106 117 113 116 117 117 114 105 108 108 109 111 110 111 111 111 112 111 108 107 105 104 104 102 103 103 102 101 102 104 105 105 104 100 98 98 97 99 99 98 97 98 93 89 101 94 96 88 79 336 301 287 282 276 92 91 86 94 86 86 81 89 96 90 89 89 85 82 78 74 70 71 71 66 58
95 109 121 123 118 124 115 105 106 99 118 124 121 119 112 106 106 105 104 107 109 110 114 114 115 115 114 111 111 109 106 107 107 104 104 105 102 101 101 101 101 105 102 97 97 94 94 91 96 98 102 104 95 91 100 112 99 107 103 248 268 279 290 284 105 107 88 86 86 83 89 98 97 92 90 87 82 79 74 69 63 58 55 54 49
138 114 109 115 123 131 112 111 115 118 127 123 134 117 114 109 105 104 106 107 108 113 115 113 113 115 113 113 112 110 107 106 106 107 108 107 105 104 109 107 105 106 104 101 96 93 99 101 104 118 121 118 113 96 101 114 125 140 203 229 250 269 267 104 66 74 74 65 79 89 101 99 93 95 91 89 84 79 79 76 76 62 58 47 35
122 136 148 127 167 146 124 124 119 129 114 132 131 122 119 118 112 107 111 113 113 112 110 113 113 114 114 111 108 94 102 112 113 110 112 107 111 111 110 112 115 108 112 114 110 110 112 126 125 131 136 134 124 119 113 120 150 169 221 229 246 256 50 47 97 103 103 110 97 94 104 104 92 90 85 81 81 86 87 72 53 44 39 35 6
126 127 137 159 166 123 132 120 129 124 120 143 135 128 120 118 118 118 117 119 120 117 115 114 114 113 117 122 113 119 119 111 114 117 116 123 117 120 117 118 115 115 116 129 130 127 141 152 162 149 148 171 174 159 150 155 191 210 220 238 246 125 77 80 83 94 107 93 94 112 117 107 98 82 98 88 62 62 70 68 40 15 348 312 333
125 123 115 114 114 121 122 125 120 122 149 154 121 139 139 136 120 125 127 127 122 117 116 117 124 123 123 121 114 113 118 118 118 120 114 111 115 130 131 125 132 136 145 160 188 145 167 178 172 192 211 202 219 171 177 163 180 211 228 236 227 77 87 85 95 107 79 95 98 119 124 114 119 114 92 116 97 97 135 123 308 307 311 319 311
128 123 119 115 116 114 111 102 116 137 144 136 161 150 144 150 137 136 138 124 128 118 119 132 130 128 126 120 113 113 108 101 107 118 124 123 121 125 122 127 135 154 180 174 195 178 206 206 219 225 217 209 214 178 196 195 167 208 209 183 79 149 103 132 110 82 91 91 102 136 130 133 133 138 110 160 162 156 151 256 289 296 297 300 306
121 119 118 120 121 122 120 111 117 116 133 152 138 141 138 161 156 118 100 116 123 128 138 141 134 124 121 120 118 119 123 127 142 139 123 127 134 135 146 138 122 131 214 98 168 137 214 175 189 220 227 228 217 190 158 143 146 121 68 76 113 157 131 96 45 86 104 114 117 145 152 155 158 190 184 160 219 214 175 230 270 276 295 299 297
128 127 119 122 122 119 117 123 118 119 113 52 86 119 132 148 150 134 122 147 138 129 135 127 116 137 132 116 115 120 129 133 133 127 128 138 137 140 140 144 152 151 199 194 202 196 190 215 236 217 234 184 46 36 44 95 95 78 86 103 122 114 78 82 107 98 110 114 132 153 162 167 188 190 222 233 221 221 223 268 283 279 285 289 293
131 121 128 120 123 120 117 119 109 118 109 136 152 121 111 115 115 110 122 126 117 127 123 127 129 154 121 116 121 126 130 127 123 130 138 143 138 155 151 160 177 185 190 203 181 215 203 192 198 185 41 91 110 119 24 56 90 114 99 94 64 81 105 126 123 133 103 107 131 156 169 178 200 207 219 247 244 260 257 262 260 273 280 280 283
127 128 129 132 133 122 116 114 120 119 115 117 111 116 109 103 109 118 110 121 129 124 124 118 120 127 127 142 145 147 146 130 138 151 163 153 170 173 176 179 181 194 160 110 120 110 73 54 46 48 59 27 108 125 114 154 100 106 123 95 102 71 42 95 104 151 136 117 132 161 169 189 201 221 235 245 255 256 266 257 269 277 270 268 265
129 133 129 126 123 118 127 121 122 119 117 123 118 113 117 121 114 109 113 121 116 111 110 123 125 131 135 143 143 137 129 129 132 126 132 126 123 129 131 114 104 106 127 94 65 71 66 63 77 86 67 29 123 132 124 114 137 117 140 144 121 139 93 76 88 36 81 121 124 148 177 184 207 220 227 243 255 262 261 264 267 266 270 272 275
129 127 125 126 130 135 127 125 121 121 121 112 110 107 111 112 114 111 110 119 114 115 134 126 125 126 119 117 118 121 124 123 115 114 120 124 116 97 108 105 93 94 96 84 84 117 92 41 74 82 87 100 71 24 246 131 95 58 53 145 140 114 139 123 130 124 119 94 102 131 176 190 211 221 232 240 249 256 260 267 265 264 266 267 270
133 129 122 122 124 130 119 114 111 117 116 107 108 111 111 111 113 116 115 112 120 132 126 121 118 108 98 91 99 120 122 117 120 122 125 127 124 135 114 100 94 91 80 113 63 33 34 53 29 16 56 67 319 25 127 107 121 143 149 125 130 91 117 154 159 161 122 121 119 129 164 191 206 220 230 237 246 248 255 260 260 264 265 266 266
135 127 125 137 134 125 123 123 117 109 114 114 114 113 111 114 118 112 116 118 124 118 114 112 113 112 113 103 90 94 93 102 115 130 122 126 122 113 101 102 92 77 73 56 66 34 53 81 74 28 15 11 157 194 237 136 120 127 118 73 107 144 143 237 97 54 76 84 94 112 148 175 198 213 225 236 239 244 251 252 258 261 264 266 268
131 129 137 139 129 124 116 119 113 126 126 120 122 121 127 128 119 116 119 131 128 125 119 111 111 115 111 102 96 100 109 115 114 112 118 106 97 103 107 106 105 83 71 50 32 22 61 80 28 6 95 97 106 185 191 106 34 44 138 128 104 95 108 87 140 154 112 134 142 146 84 158 176 202 217 224 232 241 242 247 252 257 260 263 266
132 133 145 134 127 121 138 121 124 125 124 112 122 121 126 122 123 123 132 133 119 114 115 120 118 121 117 117 109 107 107 109 117 118 126 113 112 114 110 101 89 86 77 16 8 73 63 45 333 324 298 206 183 69 68 111 150 134 100 138 79 47 221 96 90 118 230 88 92 172 173 147 156 191 201 214 226 232 238 243 248 252 258 262 267
141 145 139 127 135 139 133 122 129 119 122 117 124 123 125 124 125 134 133 131 134 133 131 134 139 131 133 121 123 111 107 106 96 96 103 123 126 117 113 96 81 117 96 79 299 58 47 122 17 340 303 62 72 66 18 79 122 64 31 1 85 80 29 67 23 94 72 99 36 60 20 13 35 337 220 181 210 227 234 237 244 251 258 261 268
147 137 135 144 135 131 138 127 131 133 118 123 110 104 107 101 103 112 129 145 142 133 135 136 134 135 128 120 116 112 102 109 117 60 106 135 113 124 96 102 120 97 87 76 331 15 5 74 34 262 71 316 196 144 127 139 76 102 177 166 127 210 97 99 208 119 79 40 86 88 14 72 32 59 319 36 173 203 214 229 240 248 254 261 269
146 142 147 143 140 131 146 137 141 131 134 126 125 117 113 121 136 140 131 158 138 132 139 124 136 136 127 121 128 128 120 119 137 167 214 126 114 108 128 137 138 73 263 155 165 144 102 350 31 40 336 247 254 126 147 134 155 163 172 91 81 348 92 241 46 69 81 127 270 232 167 148 179 171 240 214 65 161 192 214 222 240 245 260 265
145 148 150 149 145 142 151 141 131 139 130 131 132 140 127 131 136 119 157 160 134 147 122 129 96 107 119 121 132 134 145 145 152 129 271 126 115 111 104 113 124 121 262 104 35 123 185 64 64 40 329 322 358 19 56 294 166 123 41 105 23 98 133 99 65 107 122 84 99 35 11 42 18 17 28 22 86 1 339 198 218 223 246 250 255
156 149 149 150 140 147 137 130 147 138 135 129 144 126 134 164 128 137 128 135 157 119 136 153 136 74 120 140 145 148 140 150 146 188 106 116 126 112 136 149 126 152 35 308 121 39 13 48 340 35 302 346 334 26 20 313 20 22 118 101 123 44 43 88 219 50 63 104 95 111 128 100 219 142 84 250 12 101 354 37 224 184 204 214 231
151 146 146 147 148 145 140 145 151 141 141 142 157 149 151 156 150 137 145 159 135 133 165 137 94 159 144 144 154 136 140 148 161 142 301 67 137 142 121 171 138 146 119 243 60 100 66 40 360 1 320 276 269 34 308 277 91 51 42 103 113 105 48 59 147 170 141 134 110 224 179 157 70 354 135 37 1 45 35 360 353 5 105 159 178
148 151 154 152 158 156 148 156 152 144 153 154 160 162 152 162 151 161 151 153 151 153 164 136 144 171 146 132 148 143 145 151 152 164 127 109 23 114 154 194 166 125 176 15 34 26 42 310 92 300 297 328 21 312 100 7 84 106 226 100 122 140 139 174 223 131 170 158 146 173 69 39 2 119 67 28 50 351 75 333 50 3 8 58 189
156 159 161 157 164 159 156 156 159 156 157 156 165 155 164 153 177 179 152 151 140 172 141 177 120 112 118 139 161 134 145 148 155 153 142 170 172 158 158 183 59 100 18 333 1 288 324 300 30 8 298 360 65 7 53 354 250 140 163 153 124 133 153 109 274 141 116 149 138 126 172 159 180 72 100 116 79 42 37 47 57 18 36 24 357
162 165 161 160 164 158 158 162 160 162 157 148 169 144 158 158 199 172 152 159 142 180 156 104 81 135 147 153 126 136 159 149 157 159 161 203 164 124 188 161 245 130 194 226 228 313 258 343 212 174 287 298 82 86 77 43 342 108 14 171 145 147 114 144 180 109 137 106 78 39 110 103 86 125 88 101 86 21 72 45 49 21 37 48 17
167 167 166 164 165 155 160 166 160 165 158 146 160 159 141 115 333 22 11 116 190 125 108 121 145 187 146 143 148 156 172 163 166 178 159 135 157 214 207 140 164 244 242 42 277 287 19 288 35 70 328 309 275 82 79 34 75 9 272 225 117 38 86 148 147 39 36 88 87 34 65 101 83 356 95 73 105 143 84 74 34 81 117 22 223
171 167 172 168 170 161 161 165 165 162 163 148 157 150 134 148 145 60 108 53 118 147 150 156 151 153 150 156 149 164 176 162 159 161 142 136 155 251 292 174 186 199 192 183 189 246 189 197 75 326 291 19 327 104 119 97 46 19 4 8 75 68 12 332 23 67 33 325 96 84 110 79 58 21 55 50 45 91 118 128 189 112 359 115 292
174 168 178 169 165 162 160 166 166 165 162 157 158 156 160 161 174 165 162 160 151 162 171 155 161 172 165 145 142 167 168 155 171 175 129 164 165 176 226 234 183 196 205 236 210 206 187 237 138 52 345 96 350 316 120 123 141 102 93 69 148 100 25 61 37 28 354 341 51 142 243 111 140 150 142 248 94 48 39 137 141 115 326 69 273
175 169 175 167 163 159 161 168 165 168 163 157 166 162 166 173 177 178 164 170 152 165 189 168 145 201 130 151 146 156 166 170 165 172 142 149 171 179 174 242 232 192 225 217 221 240 152 84 51 101 289 37 37 330 356 137 15 169 167 163 227 325 117 134 166 24 168 117 100 277 4 88 111 100 136 149 78 78 33 357 58 130 110 87 333
172 171 172 164 159 160 162 167 166 169 167 160 168 174 166 174 180 179 94 229 166 135 142 124 124 125 126 155 158 149 168 193 149 149 171 165 188 183 192 257 261 267 213 226 264 326 41 62 100 49 15 345 36 330 5 359 249 90 44 332 109 112 281 358 117 164 177 203 25 5 70 48 52 356 342 56 141 121 63 258 83 224 118 352 261
173 171 171 161 159 164 162 169 166 171 165 164 171 176 176 170 178 176 157 208 95 118 169 154 138 139 157 145 169 145 163 160 170 163 183 174 178 181 194 239 246 237 230 208 240 128 119 73 106 156 213 227 333 51 310 344 314 81 59 1 347 304 252 117 159 243 294 102 244 348 125 52 26 309 359 323 12 70 137 28 129 335 147 198 350
176 170 171 162 162 163 166 170 166 174 167 166 176 177 180 174 186 171 161 185 145 158 220 136 143 156 146 154 154 154 169 169 166 185 165 191 191 167 203 201 224 215 281 16 18 98 179 181 235 234 29 359 346 299 285 328 332 352 42 126 293 292 314 292 269 265 121 173 145 209 23 194 138 197 63 299 16 16 347 340 231 205 358 7 266
176 176 174 167 161 164 167 171 170 174 166 170 177 178 181 191 173 179 179 175 158 152 153 150 152 168 165 165 176 167 216 164 171 168 181 195 173 215 156 219 238 124 269 224 225 226 183 201 182 95 234 318 307 338 283 249 262 311 272 193 255 220 185 240 234 342 324 281 337 140 121 319 186 159 234 112 273 349 238 186 308 352 331 306 303